WMT499 LIRF-LICD

Flight info

Callsign WMT499
Flight time 1h 5m
Altitude 35000
Route KONUT L44 TURMO M738 RONAB M740 MEGAN M732 SENTI M727 KOLEX
Aircraft A21N/M-SDE2E3FGHIRWXY/LB1

Departure

Time 2026-04-17 09:07
Airport Rome–Fiumicino Leonardo da Vinci International Airport (LIRF)

Arrival

Time 2026-04-17 10:13
Airport Lampedusa Airport (LICD)
Time Latitude Longitude Altitude Speed Heading
2026-04-17 08:59 41.79826 12.25894 20 ft 0 kts 294°
2026-04-17 08:59 41.79827 12.25890 20 ft 1 kts 294°
2026-04-17 08:59 41.79831 12.25877 20 ft 2 kts 294°
2026-04-17 09:00 41.79839 12.25853 20 ft 3 kts 294°
2026-04-17 09:00 41.79857 12.25830 20 ft 4 kts 336°
2026-04-17 09:00 41.79888 12.25835 19 ft 5 kts 21°
2026-04-17 09:00 41.79929 12.25858 19 ft 7 kts 24°
2026-04-17 09:01 41.79980 12.25890 19 ft 9 kts 25°
2026-04-17 09:01 41.80043 12.25930 18 ft 11 kts 25°
2026-04-17 09:01 41.80117 12.25976 18 ft 12 kts 24°
2026-04-17 09:01 41.80201 12.26027 17 ft 13 kts 25°
2026-04-17 09:02 41.80289 12.26082 17 ft 14 kts 25°
2026-04-17 09:02 41.80383 12.26140 16 ft 15 kts 25°
2026-04-17 09:02 41.80465 12.26178 16 ft 11 kts 12°
2026-04-17 09:02 41.80526 12.26247 16 ft 12 kts 63°
2026-04-17 09:03 41.80560 12.26363 15 ft 13 kts 70°
2026-04-17 09:03 41.80596 12.26489 15 ft 15 kts 69°
2026-04-17 09:03 41.80627 12.26602 14 ft 11 kts 72°
2026-04-17 09:03 41.80656 12.26709 14 ft 12 kts 69°
2026-04-17 09:04 41.80688 12.26827 13 ft 14 kts 69°
2026-04-17 09:04 41.80722 12.26951 12 ft 14 kts 69°
2026-04-17 09:04 41.80754 12.27035 12 ft 8 kts 38°
2026-04-17 09:04 41.80816 12.27038 12 ft 9 kts 339°
2026-04-17 09:05 41.80885 12.27004 12 ft 11 kts 340°
2026-04-17 09:05 41.80946 12.26959 12 ft 9 kts 295°
2026-04-17 09:05 41.80941 12.26869 13 ft 9 kts 250°
2026-04-17 09:05 41.80938 12.26856 13 ft 1 kts 250°
2026-04-17 09:06 41.80938 12.26855 13 ft 0 kts 250°
2026-04-17 09:06 41.80933 12.26838 13 ft 7 kts 250°
2026-04-17 09:06 41.80844 12.26516 15 ft 76 kts 249°
2026-04-17 09:07 41.80568 12.25523 17 ft 147 kts 250°
2026-04-17 09:07 41.80157 12.24046 227 ft 181 kts 250°
2026-04-17 09:07 41.79744 12.22485 969 ft 179 kts 252°
2026-04-17 09:07 41.79376 12.20937 1772 ft 176 kts 259°
2026-04-17 09:08 41.79237 12.19286 2310 ft 185 kts 269°
2026-04-17 09:08 41.79194 12.17510 2646 ft 202 kts 270°
2026-04-17 09:08 41.79097 12.15573 3044 ft 216 kts 258°
2026-04-17 09:08 41.78296 12.13859 3571 ft 223 kts 224°
2026-04-17 09:09 41.77148 12.12482 3921 ft 224 kts 221°
2026-04-17 09:09 41.75980 12.11105 3981 ft 223 kts 222°
2026-04-17 09:09 41.74828 12.09722 3985 ft 223 kts 223°
2026-04-17 09:09 41.73670 12.08307 3988 ft 223 kts 223°
2026-04-17 09:10 41.71350 12.05440 4712 ft 230 kts 222°
2026-04-17 09:10 41.69996 12.04390 5342 ft 230 kts 194°
2026-04-17 09:10 41.68367 12.04220 5736 ft 242 kts 178°
2026-04-17 09:11 41.66621 12.04272 5975 ft 264 kts 177°
2026-04-17 09:11 41.64749 12.04339 6434 ft 276 kts 178°
2026-04-17 09:11 41.62819 12.04264 7085 ft 280 kts 190°
2026-04-17 09:11 41.60988 12.03430 7768 ft 281 kts 205°
2026-04-17 09:12 41.59168 12.02406 8375 ft 287 kts 197°
2026-04-17 09:12 41.57165 12.01964 8808 ft 299 kts 183°
2026-04-17 09:12 41.55071 12.01851 9462 ft 302 kts 180°
2026-04-17 09:12 41.52980 12.01807 10131 ft 304 kts 180°
2026-04-17 09:13 41.50843 12.01785 10652 ft 313 kts 179°
2026-04-17 09:13 41.48594 12.01772 10939 ft 329 kts 179°
2026-04-17 09:13 41.46284 12.01760 11379 ft 338 kts 179°
2026-04-17 09:13 41.43911 12.01747 12009 ft 341 kts 179°
2026-04-17 09:14 41.41559 12.01733 12620 ft 343 kts 179°
2026-04-17 09:14 41.39154 12.01721 13210 ft 346 kts 179°
2026-04-17 09:14 41.36743 12.01708 13807 ft 349 kts 179°
2026-04-17 09:14 41.34293 12.01694 14379 ft 352 kts 179°
2026-04-17 09:15 41.31837 12.01675 14900 ft 356 kts 180°
2026-04-17 09:15 41.29374 12.01405 15390 ft 361 kts 187°
2026-04-17 09:15 41.26914 12.00697 15896 ft 365 kts 195°
2026-04-17 09:15 41.24488 11.99700 16439 ft 368 kts 197°
2026-04-17 09:16 41.22050 11.98636 16903 ft 372 kts 197°
2026-04-17 09:16 41.19564 11.97546 17364 ft 376 kts 197°
2026-04-17 09:16 41.17068 11.96462 17844 ft 379 kts 197°
2026-04-17 09:16 41.14559 11.95378 18306 ft 383 kts 197°
2026-04-17 09:17 41.12008 11.94285 18760 ft 386 kts 197°
2026-04-17 09:17 41.09454 11.93195 19238 ft 389 kts 197°
2026-04-17 09:17 41.06868 11.92093 19697 ft 391 kts 197°
2026-04-17 09:17 41.04292 11.90997 20149 ft 394 kts 197°
2026-04-17 09:18 41.01655 11.89876 20599 ft 396 kts 197°
2026-04-17 09:18 40.99028 11.88760 21034 ft 399 kts 197°
2026-04-17 09:18 40.96411 11.87649 21445 ft 401 kts 197°
2026-04-17 09:18 40.93756 11.86523 21860 ft 404 kts 197°
2026-04-17 09:19 40.91079 11.85388 22273 ft 406 kts 197°
2026-04-17 09:19 40.88341 11.84275 22666 ft 408 kts 193°
2026-04-17 09:19 40.85558 11.83581 23042 ft 409 kts 185°
2026-04-17 09:19 40.82733 11.83406 23417 ft 409 kts 177°
2026-04-17 09:20 40.79911 11.83541 23799 ft 410 kts 175°
2026-04-17 09:20 40.77027 11.83738 24151 ft 413 kts 174°
2026-04-17 09:20 40.74169 11.83937 24501 ft 415 kts 175°
2026-04-17 09:20 40.71281 11.84128 24841 ft 417 kts 175°
2026-04-17 09:21 40.68356 11.84314 25172 ft 420 kts 175°
2026-04-17 09:21 40.65434 11.84495 25499 ft 422 kts 175°
2026-04-17 09:21 40.62496 11.84673 25814 ft 425 kts 175°
2026-04-17 09:21 40.59565 11.84849 26127 ft 427 kts 175°
2026-04-17 09:22 40.56598 11.85026 26425 ft 429 kts 175°
2026-04-17 09:22 40.53592 11.85204 26731 ft 431 kts 175°
2026-04-17 09:22 40.50584 11.85382 27018 ft 433 kts 175°
2026-04-17 09:22 40.47601 11.85557 27321 ft 435 kts 175°
2026-04-17 09:23 40.44571 11.85735 27604 ft 437 kts 175°
2026-04-17 09:23 40.41493 11.85917 27890 ft 440 kts 175°
2026-04-17 09:23 40.38464 11.86095 28169 ft 442 kts 175°
2026-04-17 09:23 40.35362 11.86277 28465 ft 443 kts 175°
2026-04-17 09:24 40.32287 11.86457 28843 ft 442 kts 175°
2026-04-17 09:24 40.29216 11.86637 29235 ft 442 kts 175°
2026-04-17 09:24 40.26145 11.86817 29544 ft 443 kts 175°
2026-04-17 09:24 40.23068 11.86999 29795 ft 445 kts 175°
2026-04-17 09:25 40.19971 11.87181 30045 ft 447 kts 175°
2026-04-17 09:25 40.16863 11.87364 30286 ft 450 kts 175°
2026-04-17 09:25 40.13726 11.87548 30530 ft 452 kts 175°
2026-04-17 09:25 40.10587 11.87733 30805 ft 453 kts 175°
2026-04-17 09:26 40.07425 11.87916 31075 ft 454 kts 175°
2026-04-17 09:26 40.04294 11.88099 31335 ft 455 kts 175°
2026-04-17 09:26 40.01112 11.88285 31598 ft 456 kts 175°
2026-04-17 09:26 39.97940 11.88469 31847 ft 458 kts 175°
2026-04-17 09:27 39.94758 11.88656 32073 ft 459 kts 175°
2026-04-17 09:27 39.91576 11.88843 32314 ft 461 kts 175°
2026-04-17 09:27 39.88370 11.89030 32544 ft 462 kts 175°
2026-04-17 09:27 39.85140 11.89208 32740 ft 464 kts 176°
2026-04-17 09:28 39.81923 11.89360 32934 ft 466 kts 176°
2026-04-17 09:28 39.78705 11.89504 33140 ft 467 kts 176°
2026-04-17 09:28 39.75455 11.89649 33397 ft 467 kts 176°
2026-04-17 09:28 39.72201 11.89794 33634 ft 467 kts 176°
2026-04-17 09:29 39.68978 11.89940 33829 ft 468 kts 176°
2026-04-17 09:29 39.65709 11.90089 34011 ft 469 kts 176°
2026-04-17 09:29 39.62462 11.90240 34201 ft 470 kts 176°
2026-04-17 09:29 39.59166 11.90391 34407 ft 471 kts 176°
2026-04-17 09:30 39.55903 11.90542 34587 ft 471 kts 176°
2026-04-17 09:30 39.52615 11.90694 34762 ft 472 kts 176°
2026-04-17 09:30 39.49375 11.90843 34923 ft 472 kts 176°
2026-04-17 09:30 39.46078 11.90995 35065 ft 474 kts 176°
2026-04-17 09:31 39.39507 11.91296 35090 ft 475 kts 176°
2026-04-17 09:31 39.32873 11.91601 35093 ft 475 kts 176°
2026-04-17 09:32 39.26313 11.91901 35095 ft 475 kts 175°
2026-04-17 09:32 39.19704 11.92201 35094 ft 475 kts 175°
2026-04-17 09:33 39.13105 11.92503 35098 ft 475 kts 175°
2026-04-17 09:33 39.06506 11.92806 35098 ft 475 kts 175°
2026-04-17 09:34 38.99941 11.93104 35101 ft 474 kts 175°
2026-04-17 09:34 38.93332 11.93405 35103 ft 475 kts 175°
2026-04-17 09:35 38.86733 11.93703 35103 ft 475 kts 175°
2026-04-17 09:35 38.80137 11.94001 35101 ft 475 kts 175°
2026-04-17 09:36 38.73511 11.94301 35108 ft 474 kts 175°
2026-04-17 09:36 38.66934 11.94599 35099 ft 474 kts 175°
2026-04-17 09:37 38.60386 11.94961 35097 ft 472 kts 171°
2026-04-17 09:37 38.53972 11.96715 35099 ft 469 kts 162°
2026-04-17 09:38 38.47649 11.98753 35097 ft 469 kts 162°
2026-04-17 09:38 38.41329 12.00750 35089 ft 468 kts 163°
2026-04-17 09:39 38.35013 12.02712 35094 ft 468 kts 163°
2026-04-17 09:39 38.28699 12.04659 35099 ft 468 kts 163°
2026-04-17 09:40 38.22385 12.06597 35086 ft 467 kts 163°
2026-04-17 09:40 38.16052 12.08541 35089 ft 467 kts 163°
2026-04-17 09:41 38.09755 12.10469 35082 ft 466 kts 163°
2026-04-17 09:41 38.03477 12.12388 35082 ft 467 kts 163°
2026-04-17 09:42 37.97154 12.14318 35086 ft 467 kts 163°
2026-04-17 09:42 37.90833 12.16239 35082 ft 467 kts 163°
2026-04-17 09:43 37.84512 12.18162 35082 ft 466 kts 163°
2026-04-17 09:43 37.78250 12.20060 35079 ft 466 kts 163°
2026-04-17 09:44 37.71933 12.21974 35084 ft 465 kts 163°
2026-04-17 09:44 37.65657 12.23873 35084 ft 465 kts 163°
2026-04-17 09:45 37.59370 12.25771 35076 ft 465 kts 163°
2026-04-17 09:45 37.53090 12.27662 35076 ft 465 kts 163°
2026-04-17 09:46 37.46811 12.29548 35080 ft 464 kts 163°
2026-04-17 09:46 37.40516 12.31438 34896 ft 463 kts 163°
2026-04-17 09:47 37.37392 12.32373 34701 ft 461 kts 163°
2026-04-17 09:47 37.34290 12.33301 34413 ft 458 kts 163°
2026-04-17 09:47 37.31195 12.34228 33932 ft 456 kts 163°
2026-04-17 09:47 37.28136 12.35145 33338 ft 455 kts 163°
2026-04-17 09:48 37.25064 12.36065 32709 ft 455 kts 164°
2026-04-17 09:48 37.21984 12.36985 32293 ft 448 kts 164°
2026-04-17 09:48 37.19005 12.37871 31875 ft 444 kts 164°
2026-04-17 09:48 37.16003 12.38766 31446 ft 439 kts 164°
2026-04-17 09:49 37.13042 12.39648 31021 ft 435 kts 164°
2026-04-17 09:49 37.10138 12.40512 30592 ft 431 kts 164°
2026-04-17 09:49 37.07239 12.41375 30149 ft 427 kts 164°
2026-04-17 09:49 37.04348 12.42234 29700 ft 423 kts 164°
2026-04-17 09:50 37.01524 12.43073 29263 ft 419 kts 164°
2026-04-17 09:50 36.98685 12.43916 28828 ft 415 kts 164°
2026-04-17 09:50 36.95884 12.44746 28417 ft 411 kts 164°
2026-04-17 09:50 36.93142 12.45558 27998 ft 408 kts 164°
2026-04-17 09:51 36.90399 12.46368 27571 ft 405 kts 164°
2026-04-17 09:51 36.87655 12.47180 27151 ft 401 kts 164°
2026-04-17 09:51 36.84977 12.47973 26728 ft 398 kts 164°
2026-04-17 09:51 36.82251 12.48780 26310 ft 395 kts 164°
2026-04-17 09:52 36.79592 12.49565 25895 ft 392 kts 164°
2026-04-17 09:52 36.76960 12.50342 25474 ft 390 kts 164°
2026-04-17 09:52 36.74326 12.51119 25045 ft 387 kts 164°
2026-04-17 09:52 36.71702 12.51893 24627 ft 385 kts 164°
2026-04-17 09:53 36.69114 12.52655 24230 ft 381 kts 164°
2026-04-17 09:53 36.66570 12.53404 23826 ft 379 kts 164°
2026-04-17 09:53 36.64009 12.54157 23425 ft 376 kts 164°
2026-04-17 09:53 36.61459 12.54908 23019 ft 373 kts 164°
2026-04-17 09:54 36.58955 12.55644 22602 ft 372 kts 164°
2026-04-17 09:54 36.56433 12.56384 22174 ft 370 kts 164°
2026-04-17 09:54 36.53933 12.57118 21749 ft 369 kts 164°
2026-04-17 09:54 36.51433 12.57847 21312 ft 368 kts 165°
2026-04-17 09:55 36.48957 12.58443 20880 ft 368 kts 168°
2026-04-17 09:55 36.46396 12.58895 20445 ft 367 kts 170°
2026-04-17 09:55 36.43904 12.59315 20016 ft 366 kts 170°
2026-04-17 09:55 36.41375 12.59739 19592 ft 364 kts 170°
2026-04-17 09:56 36.38884 12.60157 19173 ft 363 kts 170°
2026-04-17 09:56 36.36360 12.60581 18752 ft 361 kts 170°
2026-04-17 09:56 36.33883 12.60997 18328 ft 360 kts 170°
2026-04-17 09:56 36.31419 12.61411 17909 ft 359 kts 170°
2026-04-17 09:57 36.28952 12.61825 17493 ft 358 kts 170°
2026-04-17 09:57 36.26492 12.62239 17082 ft 356 kts 170°
2026-04-17 09:57 36.24035 12.62653 16674 ft 354 kts 170°
2026-04-17 09:57 36.21613 12.63060 16269 ft 353 kts 170°
2026-04-17 09:58 36.19183 12.63468 15857 ft 351 kts 170°
2026-04-17 09:58 36.16758 12.63873 15443 ft 349 kts 170°
2026-04-17 09:58 36.14368 12.64274 15037 ft 348 kts 170°
2026-04-17 09:58 36.11948 12.64680 14624 ft 346 kts 170°
2026-04-17 09:59 36.09594 12.65074 14223 ft 344 kts 171°
2026-04-17 09:59 36.07211 12.65473 13815 ft 343 kts 171°
2026-04-17 09:59 36.04869 12.65865 13407 ft 341 kts 171°
2026-04-17 09:59 36.02496 12.66261 12998 ft 339 kts 171°
2026-04-17 10:00 36.00193 12.66645 12612 ft 337 kts 171°
2026-04-17 10:00 35.97871 12.67033 12222 ft 334 kts 171°
2026-04-17 10:00 35.95582 12.67414 11833 ft 332 kts 171°
2026-04-17 10:00 35.93305 12.67795 11444 ft 330 kts 171°
2026-04-17 10:01 35.91026 12.68175 11055 ft 327 kts 171°
2026-04-17 10:01 35.88780 12.68549 10668 ft 325 kts 171°
2026-04-17 10:01 35.86538 12.68924 10296 ft 322 kts 171°
2026-04-17 10:01 35.84382 12.69281 10173 ft 309 kts 171°
2026-04-17 10:02 35.82288 12.69627 10062 ft 297 kts 171°
2026-04-17 10:02 35.80230 12.69869 9714 ft 295 kts 178°
2026-04-17 10:02 35.78196 12.69696 9345 ft 295 kts 187°
2026-04-17 10:02 35.76162 12.69493 8965 ft 291 kts 172°
2026-04-17 10:03 35.74284 12.70271 8695 ft 281 kts 145°
2026-04-17 10:03 35.72947 12.71949 8447 ft 273 kts 118°
2026-04-17 10:03 35.72333 12.74099 8188 ft 264 kts 97°
2026-04-17 10:03 35.72114 12.76288 7927 ft 259 kts 96°
2026-04-17 10:04 35.71860 12.78473 7679 ft 253 kts 98°
2026-04-17 10:04 35.71515 12.80552 7433 ft 248 kts 102°
2026-04-17 10:04 35.71063 12.82605 7125 ft 246 kts 105°
2026-04-17 10:04 35.70512 12.84580 6792 ft 245 kts 111°
2026-04-17 10:05 35.69769 12.86458 6455 ft 245 kts 119°
2026-04-17 10:05 35.68814 12.88170 6125 ft 245 kts 127°
2026-04-17 10:05 35.67670 12.89743 5793 ft 246 kts 134°
2026-04-17 10:05 35.66368 12.91111 5462 ft 246 kts 144°
2026-04-17 10:06 35.64869 12.92122 5142 ft 247 kts 156°
2026-04-17 10:06 35.63226 12.92732 4829 ft 248 kts 168°
2026-04-17 10:06 35.61500 12.92925 4523 ft 248 kts 180°
2026-04-17 10:06 35.59792 12.92700 4244 ft 247 kts 192°
2026-04-17 10:07 35.58160 12.92085 3981 ft 240 kts 203°
2026-04-17 10:07 35.56714 12.91155 3678 ft 234 kts 214°
2026-04-17 10:07 35.55457 12.89954 3519 ft 219 kts 224°
2026-04-17 10:07 35.54474 12.88640 3457 ft 206 kts 234°
2026-04-17 10:08 35.53671 12.87165 3450 ft 204 kts 243°
2026-04-17 10:08 35.53106 12.85577 3435 ft 203 kts 253°
2026-04-17 10:08 35.52764 12.83910 3304 ft 201 kts 262°
2026-04-17 10:08 35.52539 12.82210 3174 ft 200 kts 264°
2026-04-17 10:09 35.52333 12.80524 2904 ft 198 kts 264°
2026-04-17 10:09 35.52121 12.78896 2618 ft 187 kts 264°
2026-04-17 10:09 35.51915 12.77394 2360 ft 173 kts 264°
2026-04-17 10:09 35.51717 12.75968 2133 ft 167 kts 265°
2026-04-17 10:10 35.51526 12.74573 1931 ft 166 kts 265°
2026-04-17 10:10 35.51337 12.73186 1752 ft 162 kts 266°
2026-04-17 10:10 35.51152 12.71842 1535 ft 157 kts 266°
2026-04-17 10:11 35.50817 12.69386 1117 ft 142 kts 266°
2026-04-17 10:11 35.50657 12.68196 937 ft 141 kts 266°
2026-04-17 10:11 35.50496 12.67012 754 ft 140 kts 266°
2026-04-17 10:11 35.50336 12.65832 570 ft 139 kts 266°
2026-04-17 10:12 35.50174 12.64678 382 ft 138 kts 266°
2026-04-17 10:12 35.50026 12.63526 211 ft 137 kts 266°
2026-04-17 10:12 35.49872 12.62372 64 ft 130 kts 265°
2026-04-17 10:12 35.49756 12.61503 53 ft 63 kts 261°
2026-04-17 10:13 35.49714 12.61185 48 ft 32 kts 261°
2026-04-17 10:13 35.49681 12.60946 44 ft 16 kts 261°
2026-04-17 10:13 35.49687 12.60850 43 ft 3 kts 230°
2026-04-17 10:13 35.49672 12.60873 43 ft 5 kts 102°
2026-04-17 10:14 35.49676 12.60918 44 ft 5 kts 80°
2026-04-17 10:14 35.49683 12.60968 44 ft 6 kts 81°
2026-04-17 10:14 35.49692 12.61034 45 ft 9 kts 81°
2026-04-17 10:14 35.49704 12.61124 47 ft 12 kts 80°
2026-04-17 10:15 35.49721 12.61235 48 ft 14 kts 78°
2026-04-17 10:15 35.49739 12.61363 50 ft 16 kts 81°
2026-04-17 10:15 35.49759 12.61507 53 ft 17 kts 81°
2026-04-17 10:15 35.49780 12.61619 54 ft 9 kts 43°
2026-04-17 10:16 35.49842 12.61606 54 ft 10 kts 330°
2026-04-17 10:16 35.49881 12.61580 54 ft 2 kts 332°
2026-04-17 10:16 35.49902 12.61575 54 ft 3 kts 10°
2026-04-17 10:16 35.49916 12.61591 54 ft 2 kts 65°
2026-04-17 10:17 35.49922 12.61615 54 ft 3 kts 77°
2026-04-17 10:17 35.49927 12.61649 54 ft 4 kts 80°
2026-04-17 10:17 35.49934 12.61692 55 ft 6 kts 79°
2026-04-17 10:17 35.49946 12.61772 56 ft 12 kts 82°
2026-04-17 10:18 35.49954 12.61839 57 ft 6 kts 82°
2026-04-17 10:18 35.49960 12.61888 57 ft 2 kts 75°
2026-04-17 10:18 35.49973 12.61896 57 ft 2 kts 358°
2026-04-17 10:18 35.49993 12.61894 57 ft 2 kts 355°
2026-04-17 10:19 35.50005 12.61901 57 ft 0 kts 44°
2026-04-17 10:19 35.50008 12.61906 57 ft 0 kts 48°